Location: Newark
(50.0306°N, 2.3272°E)
Time: 23:16:41
(UTC+00:00)

A-11 Canister half - Pass Details

Date: 12 December 2019
Orbit: 1525 x 1684 km, 47.3° (Epoch: 18 January)

Event Time Altitude Azimuth Distance (km) Brightness Sun altitude
Rises 08:24:43 0° 267° (W) 4,935 11.3 4.6°
Reaches altitude 10° 08:27:53 10° 266° (W) 3,949 10.8 5.0°
Maximum altitude 08:38:03 77° 183° (S) 1,712 9.6 6.1°
Drops below altitude 10° 08:48:02 10° 100° (E) 3,888 12.0 7.2°
Sets 08:51:08 0° 99° (E) 4,856 12.4 7.5°
